Погода в Каменке

Россия / Саратовская область     52°02′23″N   43°56′58″E
темп.,
°C
ветер,
м/с
пор.,
м/с
влажн.,
%
обл.,
%
осадки,
мм/ч
давл.,
гПа
погр.,
м
19 сентября, вс
вс1901:00+7в485899 0.0 1023252
04:00+7в51059100 0.0 1023318
07:00+6вюв51162100 0.0 1023353
10:00+7вюв51064100 0.1 1023402
13:00+9вюв61056100 0.1 1023469
16:00+12вюв7943100 0.1 1021716
19:00+11вюв51042100 0.0 1020515
22:00+12вюв71438100 0.1 1019557
20 сентября, пн
пн2001:00+11вюв81640100 0.0 1018622
04:00+10вюв71442100 0.1 1018598
07:00+8вюв81663100 1.2 1017618
10:00+7вюв91873100 5.4 1016757
13:00+7вюв91878100 2.1 1016806
16:00+7вюв91783100 6.6 1016802
19:00+8вюв91683100 0.3 1015695
22:00+8вюв81587100 3.5 1016675
21 сентября, вт
вт2101:00+8вюв71591100 1.8 1015493
04:00+7вюв612926 1.9 1015363
07:00+7вюв51192100 0.0 1014333
10:00+10юв5882100 0.2 1014417
13:00+13юв586950 1.8 1013549
16:00+14ююв4570100 2.2 1012593
19:00+12в3392100 0.2 101138
22:00+11в2295100 0.5 101136
22 сентября, ср
ср2201:00+11зюз229699 0.4 101047
04:00+11всв0089100 0.4 100910
07:00+11юз238394 0.0 100951
10:00+11юз368598 0.1 1010319
13:00+13юз466228 0.0 1010903
16:00+15юз454615 0.0 10101619
19:00+11з3661100 0.0 1012267
22:00+10з2367100 0.0 1013108
23 сентября, чт
чт2301:00+10зюз1168100 0.0 101321
04:00+10зюз1170100 0.0 101438
07:00+9зюз0071100 0.0 101417
10:00+11зюз2264100 0.0 1013535
13:00+12зюз2356100 0.0 1013853
16:00+13юз1250100 0.0 10121142
19:00+12ююз1155100 0.0 101214
22:00+9з1162100 0.0 101312